Dewpoint
22 16 17 18 16 13 12 12 9 10 15 17 24 26 27 27 34 40 44 47 55 59 61 62 62 65 68 71 74 75 74 76
19 18 16 17 18 14 15 20 19 14 21 19 26 28 29 31 30 37 41 46 53 58 61 62 62 64 67 70 73 74 75 75
21 19 18 17 19 18 15 15 15 17 13 26 32 31 31 31 33 36 41 46 50 57 59 62 63 64 65 68 72 74 74 75
24 21 19 18 20 22 19 26 18 20 16 22 28 30 30 30 34 37 42 48 50 54 58 61 63 63 65 66 69 72 75 75
26 24 21 20 19 20 21 19 28 19 17 25 28 27 34 32 37 41 46 45 49 53 56 59 62 64 64 66 66 70 74 74
25 28 26 24 19 20 19 21 23 19 24 26 27 28 32 37 40 41 47 48 49 52 57 59 62 65 66 66 66 68 71 73
28 28 24 19 18 19 21 25 24 22 22 30 35 34 35 36 42 44 48 49 54 53 59 62 64 66 66 66 67 67 69 71
33 31 29 27 20 20 19 19 21 21 22 30 33 38 37 41 41 45 46 45 49 54 58 63 64 67 66 67 67 68 69 69
30 32 31 28 27 22 21 20 20 23 29 32 34 36 38 38 37 38 36 39 43 50 54 59 60 68 68 68 69 70 70 71
30 33 29 31 31 28 26 23 22 26 30 33 39 40 39 38 37 40 41 45 51 39 48 59 50 50 63 68 71 71 73 72
28 28 32 30 30 29 28 28 26 26 29 31 33 34 37 35 36 39 45 47 48 42 46 62 57 58 62 64 71 71 71 73
29 27 26 32 28 28 28 27 34 30 31 30 31 29 46 54 53 53 55 58 60 58 57 50 63 55 65 63 67 71 71 71
24 26 27 31 30 28 29 43 47 47 48 40 39 51 54 53 54 56 58 60 61 62 61 66 67 65 69 65 65 68 71 72
24 25 26 32 30 35 46 45 42 43 44 46 47 48 51 53 57 58 60 60 59 62 63 63 70 70 71 73 74 75 74 73
23 24 39 35 33 32 31 35 41 39 38 40 39 40 44 50 57 60 62 63 61 60 64 65 71 73 71 77 78 77 78 77
26 27 29 29 29 30 31 32 33 35 35 35 38 39 41 45 53 60 65 64 67 68 69 71 72 71 75 76 77 78 79 79
29 32 35 32 30 32 31 33 32 32 33 34 36 38 46 50 57 59 62 67 68 70 71 72 74 75 74 76 77 76 77 77
30 35 38 40 36 36 34 33 35 36 36 37 39 44 49 51 59 61 65 68 69 69 69 69 69 70 71 72 75 77 75 73
36 39 38 40 41 39 39 37 37 38 38 40 40 44 48 51 60 61 65 68 68 69 69 70 70 68 69 72 72 74 74 76
Lifted_Index
4 4 4 4 4 3 2 0 -1 -0 0 1 1 1 0 -1 -1 -1 -2 -3 -4 -4 -4 -3 -3 -3 -3 -4 -5 -6 -6 -6
3 3 4 4 3 3 2 0 -1 -1 -0 0 1 1 0 -0 -1 -1 -2 -3 -3 -4 -4 -4 -3 -3 -3 -4 -5 -6 -6 -6
1 2 3 3 3 3 2 1 -0 -1 -1 -0 0 0 0 -0 -0 -1 -2 -2 -3 -4 -4 -4 -4 -3 -3 -4 -5 -6 -6 -6
1 1 2 3 3 3 3 2 1 -0 -0 -0 0 0 0 1 1 -0 -1 -2 -3 -4 -4 -4 -4 -4 -4 -4 -5 -5 -6 -6
1 1 1 2 3 2 2 2 1 0 0 0 1 0 1 1 1 0 -1 -2 -3 -3 -4 -4 -4 -4 -4 -4 -5 -5 -6 -6
1 1 1 1 1 2 2 2 1 1 0 1 1 1 1 2 2 1 -0 -2 -3 -3 -4 -4 -4 -5 -5 -5 -5 -5 -6 -6
1 1 0 0 1 1 2 2 1 0 0 1 2 2 2 3 2 2 0 -1 -2 -3 -3 -4 -4 -5 -5 -5 -5 -5 -6 -6
1 1 1 0 0 1 1 1 0 -0 0 1 2 3 3 3 3 3 2 1 0 -0 -1 -2 -3 -5 -5 -6 -6 -6 -6 -6
1 2 1 0 0 0 -0 -0 -0 -0 0 0 1 2 3 4 4 4 4 4 3 3 2 0 -2 -4 -5 -6 -6 -6 -6 -7
1 2 1 1 0 0 0 -0 -0 -0 -0 0 0 1 2 4 5 5 5 4 4 4 3 1 -0 -2 -4 -6 -7 -7 -7 -7
2 2 1 1 1 0 0 0 -0 -0 0 0 1 1 2 3 4 4 3 3 3 3 2 1 0 -1 -3 -5 -6 -7 -7 -7
2 2 1 1 1 1 0 0 -0 -0 0 1 1 1 1 2 2 2 1 1 1 1 1 1 0 -1 -2 -4 -5 -7 -7 -8
2 2 1 1 1 1 -0 -1 -1 -0 0 1 1 1 1 2 1 1 -0 -0 -0 0 0 0 0 -0 -1 -3 -4 -6 -7 -8
2 2 2 2 2 2 1 0 0 1 2 2 3 3 3 3 2 0 -1 -1 -1 -0 0 -0 -1 -1 -1 -3 -4 -5 -7 -8
2 2 3 3 3 3 3 3 3 4 5 6 6 5 5 4 2 -1 -2 -2 -2 -1 -1 -1 -1 -2 -2 -4 -5 -6 -7 -8
3 4 4 4 5 5 6 6 7 8 9 9 8 7 6 5 2 -1 -3 -3 -3 -3 -3 -3 -3 -3 -4 -5 -6 -6 -7 -7
4 4 5 5 6 6 7 8 9 10 11 11 9 8 7 5 2 -0 -2 -4 -4 -4 -4 -4 -4 -5 -5 -6 -6 -6 -7 -7
6 6 6 7 7 7 8 8 9 10 10 10 10 9 7 5 2 0 -2 -3 -4 -4 -4 -4 -4 -4 -4 -5 -6 -6 -7 -7
7 7 7 8 8 8 8 8 9 9 9 9 9 9 7 5 2 0 -1 -3 -4 -4 -4 -3 -3 -3 -3 -4 -5 -6 -6 -6